FW8254 Weather Reports


time (UTC)temp
C
wind
direction
speed
KPH
gust
KPH
rain 1hr
cm
rain 24hr
cm
rain mn
cm
humidity
%
barometer
mb
20260905073801 25 19 1.6 3.2 0.00 0.00 0.00 88 1007.6
20260905073255 25 29 1.6 1.6 0.00 0.00 0.00 87 1007.6
20260905072750 25 30 1.6 3.2 0.00 0.00 0.00 87 1007.7
20260905072245 25 27 1.6 3.2 0.00 0.00 0.00 87 1007.5
20260905071742 25 11 3.2 3.2 0.00 0.00 0.00 87 1007.5
20260905071237 25 17 3.2 3.2 0.00 0.00 0.00 87 1007.6
20260905070732 25 30 1.6 3.2 0.00 0.00 0.00 87 1007.6
20260905070229 26 340 3.2 3.2 0.00 0.00 0.00 86 1007.6
20260905065727 25 349 4.8 4.8 0.00 0.00 0.00 87 1007.8
20260905065221 25 34 0.0 1.6 0.00 0.00 0.00 86 1007.7
20260905064716 25 39 0.0 0.0 0.00 0.00 0.00 86 1007.8
20260905064212 26 40 1.6 3.2 0.00 0.00 0.00 86 1007.7
20260905063710 26 18 1.6 3.2 0.00 0.00 0.00 86 1007.8
20260905063207 26 343 3.2 3.2 0.00 0.00 0.00 86 1007.8
20260905062703 25 33 0.0 1.6 0.00 0.00 0.00 86 1007.9
20260905062202 25 32 0.0 1.6 0.00 0.00 0.00 86 1007.9
20260905061656 26 45 1.6 1.6 0.00 0.00 0.00 85 1007.8
20260905061156 25 47 0.0 0.0 0.00 0.00 0.00 85 1008.0
20260905060652 25 47 0.0 0.0 0.00 0.00 0.00 85 1008.3
20260905060148 26 47 0.0 0.0 0.00 0.00 0.00 85 1008.1
20260905055646 26 47 0.0 1.6 0.00 0.00 0.00 84 1008.3
20260905055142 26 47 0.0 0.0 0.00 0.00 0.00 84 1008.4
20260905054637 26 47 0.0 0.0 0.00 0.00 0.00 84 1008.3
20260905054133 26 47 0.0 0.0 0.00 0.00 0.00 84 1008.4
20260905053632 26 47 0.0 0.0 0.00 0.00 0.00 84 1008.5
20260905053128 26 47 0.0 0.0 0.00 0.00 0.00 84 1008.7
20260905052627 26 47 0.0 0.0 0.00 0.00 0.00 84 1008.5
20260905052122 26 47 0.0 0.0 0.00 0.00 0.00 83 1008.3
20260905051617 26 47 0.0 0.0 0.00 0.00 0.00 83 1008.8
20260905051114 26 47 0.0 0.0 0.00 0.00 0.00 83 1008.5
20260905050609 26 47 0.0 0.0 0.00 0.00 0.00 83 1008.7
20260905045601 26 48 0.0 0.0 0.00 0.00 0.00 83 1008.4
20260905045056 26 47 0.0 0.0 0.00 0.00 0.00 82 1008.7
20260905044555 26 47 0.0 0.0 0.00 0.00 0.00 82 1008.7
20260905044050 26 47 0.0 0.0 0.00 0.00 0.00 82 1008.7
20260905043549 26 47 0.0 0.0 0.00 0.00 0.00 82 1008.8
20260905043045 26 47 0.0 0.0 0.00 0.00 0.00 81 1008.9
20260905042543 26 47 0.0 0.0 0.00 0.00 0.00 81 1008.9
20260905042039 26 47 0.0 1.6 0.00 0.00 0.00 81 1008.8
20260905041534 26 47 0.0 0.0 0.00 0.00 0.00 81 1008.8
20260905041030 26 47 0.0 0.0 0.00 0.00 0.00 81 1008.7
20260905040529 26 47 0.0 0.0 0.00 0.00 0.00 81 1008.6
20260905040028 26 47 0.0 0.0 0.00 0.00 0.00 81 1008.7
20260905035523 26 47 0.0 0.0 0.00 0.00 0.00 80 1008.8
20260905035020 26 47 0.0 0.0 0.00 0.00 0.00 79 1008.9
20260905034516 26 47 0.0 0.0 0.00 0.00 0.00 79 1009.0
20260905034015 26 47 0.0 1.6 0.00 0.00 0.00 79 1008.9
20260905033509 27 47 0.0 0.0 0.00 0.00 0.00 78 1009.0
20260905033005 27 47 0.0 0.0 0.00 0.00 0.00 78 1009.1
20260905032500 27 47 0.0 0.0 0.00 0.00 0.00 77 1008.7
20260905031954 27 47 0.0 0.0 0.00 0.00 0.00 76 1009.0
20260905031450 27 47 0.0 0.0 0.00 0.00 0.00 76 1009.0
20260905030945 27 47 0.0 0.0 0.00 0.00 0.00 76 1009.1
20260905030440 27 47 0.0 1.6 0.00 0.00 0.00 76 1008.9
20260905025939 27 47 0.0 0.0 0.00 0.00 0.00 76 1009.1
20260905025435 27 47 0.0 0.0 0.00 0.00 0.00 75 1008.9
20260905024932 27 47 0.0 0.0 0.00 0.00 0.00 75 1009.0
20260905024431 27 47 0.0 1.6 0.00 0.00 0.00 75 1009.3
20260905023927 27 47 0.0 1.6 0.00 0.00 0.00 75 1009.0
20260905023422 27 47 0.0 0.0 0.00 0.00 0.00 75 1009.1
20260905022921 27 47 0.0 0.0 0.00 0.00 0.00 75 1009.0
20260905022417 27 47 0.0 1.6 0.00 0.00 0.00 75 1009.1
20260905021911 27 47 0.0 1.6 0.00 0.00 0.00 76 1009.1
20260905021406 26 46 0.0 0.0 0.00 0.00 0.00 78 1008.7
20260905020901 27 46 0.0 0.0 0.00 0.00 0.00 81 1008.8
20260905020400 27 46 0.0 0.0 0.00 0.00 0.00 81 1008.9
20260905015855 27 45 0.0 0.0 0.00 0.00 0.00 82 1008.7
20260905015354 27 45 0.0 0.0 0.00 0.00 0.00 82 1008.8
20260905014853 27 45 0.0 0.0 0.00 0.00 0.00 82 1009.2
20260905014349 27 45 0.0 0.0 0.00 0.00 0.00 82 1008.7
20260905013844 27 45 0.0 0.0 0.00 0.00 0.00 81 1008.8
20260905013340 27 45 0.0 0.0 0.00 0.00 0.00 81 1008.7
20260905012835 27 46 0.0 0.0 0.00 0.00 0.00 81 1008.7
20260905012330 28 46 0.0 0.0 0.00 0.00 0.00 81 1008.7
20260905011827 28 46 0.0 1.6 0.00 0.00 0.00 81 1008.7
20260905011328 28 45 0.0 0.0 0.00 0.00 0.00 80 1008.6
20260905010823 28 45 0.0 0.0 0.00 0.00 0.00 79 1008.6
20260905010318 28 45 0.0 0.0 0.00 0.00 0.00 79 1008.5
20260905005814 28 45 0.0 0.0 0.00 0.00 0.00 79 1008.5
20260905005309 28 45 1.6 1.6 0.00 0.00 0.00 78 1008.5
20260905004804 29 45 0.0 0.0 0.00 0.00 0.00 77 1008.8
20260905004259 29 45 0.0 0.0 0.00 0.00 0.00 76 1008.2
20260905003754 29 45 0.0 0.0 0.00 0.00 0.00 75 1008.4
20260905003250 30 45 0.0 0.0 0.00 0.00 0.00 74 1008.2
20260905002746 30 45 0.0 0.0 0.00 0.00 0.00 72 1008.3
20260905002245 30 45 0.0 0.0 0.00 0.00 0.00 71 1008.2
20260905001740 30 45 0.0 0.0 0.00 0.00 0.00 69 1007.9
20260905001239 30 45 0.0 0.0 0.00 0.00 0.00 68 1008.2
20260905000735 30 45 0.0 0.0 0.00 0.00 0.00 67 1008.0
20260905000233 31 45 0.0 0.0 0.00 0.00 0.00 66 1007.9
20260904235726 31 45 0.0 0.0 0.00 0.00 0.00 61 1007.9
20260904235220 31 46 0.0 0.0 0.00 0.00 0.00 58 1007.9
20260904234715 31 46 0.0 0.0 0.00 0.00 0.00 57 1007.7
20260904234211 32 46 0.0 0.0 0.00 0.00 0.00 56 1007.9
20260904233706 32 46 0.0 0.0 0.00 0.00 0.00 55 1007.9
20260904233202 32 46 0.0 0.0 0.00 0.00 0.00 55 1007.7
20260904232659 32 46 0.0 0.0 0.00 0.00 0.00 55 1007.8
20260904232155 32 46 0.0 0.0 0.00 0.00 0.00 54 1007.6
20260904231650 33 46 0.0 0.0 0.00 0.00 0.00 55 1007.8
20260904231145 33 46 0.0 0.0 0.00 0.00 0.00 54 1007.6
20260904230644 33 46 0.0 0.0 0.00 0.00 0.00 54 1007.8
20260904230140 33 46 0.0 0.0 0.00 0.00 0.00 53 1007.9
20260904225638 33 46 0.0 0.0 0.00 0.00 0.00 53 1007.8
20260904225133 33 46 0.0 0.0 0.00 0.00 0.00 52 1007.7
20260904224627 34 46 0.0 0.0 0.00 0.00 0.00 52 1007.7
20260904224122 34 46 0.0 1.6 0.00 0.00 0.00 51 1007.7
20260904223621 34 46 0.0 1.6 0.00 0.00 0.00 50 1007.5
20260904223116 34 47 0.0 0.0 0.00 0.00 0.00 52 1007.7
20260904222613 34 47 0.0 0.0 0.00 0.00 0.00 51 1007.4
20260904222108 34 47 0.0 0.0 0.00 0.00 0.00 50 1007.6
20260904221608 34 47 0.0 1.6 0.00 0.00 0.00 49 1007.7
20260904221108 34 47 0.0 1.6 0.00 0.00 0.00 49 1007.3
20260904220602 34 47 0.0 1.6 0.00 0.00 0.00 49 1007.5
20260904220058 34 46 0.0 1.6 0.00 0.00 0.00 50 1007.5
20260904215552 34 47 1.6 1.6 0.00 0.00 0.00 49 1007.7
20260904215048 34 49 0.0 0.0 0.00 0.00 0.00 51 1007.6
20260904214543 34 49 0.0 0.0 0.00 0.00 0.00 50 1007.5
20260904214038 34 50 0.0 3.2 0.00 0.00 0.00 50 1007.7
20260904213536 34 44 0.0 3.2 0.00 0.00 0.00 50 1007.9
20260904213034 34 60 1.6 3.2 0.00 0.00 0.00 50 1007.7
20260904212532 34 42 0.0 1.6 0.00 0.00 0.00 51 1007.8
20260904212028 34 50 1.6 1.6 0.00 0.00 0.00 50 1007.8
20260904211528 34 50 0.0 1.6 0.00 0.00 0.00 50 1007.6
20260904211023 34 51 0.0 1.6 0.00 0.00 0.00 51 1007.7
20260904210523 34 46 0.0 1.6 0.00 0.00 0.00 51 1007.8
20260904210019 35 34 1.6 1.6 0.00 0.00 0.00 51 1007.7
20260904205514 34 36 0.0 1.6 0.00 0.00 0.00 51 1007.7
20260904205011 35 42 0.0 3.2 0.00 0.00 0.00 50 1007.9
20260904204506 35 45 0.0 1.6 0.00 0.00 0.00 51 1008.1
20260904204002 34 49 1.6 3.2 0.00 0.00 0.00 51 1008.0
20260904203458 35 40 0.0 1.6 0.00 0.00 0.00 52 1008.2
20260904202954 34 47 1.6 1.6 0.00 0.00 0.00 51 1008.0
20260904202450 35 29 0.0 3.2 0.00 0.00 0.00 52 1008.3
20260904201946 35 43 1.6 8.0 0.00 0.00 0.00 52 1008.4
20260904201440 35 46 1.6 1.6 0.00 0.00 0.00 50 1008.5
20260904200936 35 32 0.0 1.6 0.00 0.00 0.00 50 1008.8
20260904200434 35 36 1.6 1.6 0.00 0.00 0.00 50 1008.7
20260904195930 35 35 1.6 1.6 0.00 0.00 0.00 51 1008.7
20260904195428 35 34 0.0 1.6 0.00 0.00 0.00 52 1008.7
20260904194927 35 38 0.0 3.2 0.00 0.00 0.00 52 1008.9
20260904194427 35 33 0.0 3.2 0.00 0.00 0.00 52 1008.9
20260904193922 35 39 1.6 3.2 0.00 0.00 0.00 52 1008.8
20260904193418 35 36 1.6 4.8 0.00 0.00 0.00 53 1009.2
20260904192914 35 22 0.0 4.8 0.00 0.00 0.00 53 1009.3
20260904192409 35 35 3.2 4.8 0.00 0.00 0.00 55 1009.4
20260904191905 35 55 3.2 8.0 0.00 0.00 0.00 54 1009.4
20260904191401 35 26 0.0 4.8 0.00 0.00 0.00 55 1009.3
20260904190857 35 30 0.0 3.2 0.00 0.00 0.00 56 1009.4
20260904190352 34 31 1.6 4.8 0.00 0.00 0.00 55 1009.6
20260904185849 34 31 3.2 4.8 0.00 0.00 0.00 56 1009.6
20260904185344 34 31 1.6 8.0 0.00 0.00 0.00 56 1009.7
20260904184844 34 32 0.0 11.3 0.00 0.00 0.00 56 1010.0
20260904184339 33 31 0.0 3.2 0.00 0.00 0.00 56 1010.1
20260904183834 33 43 1.6 4.8 0.00 0.00 0.00 56 1010.0
20260904183329 33 26 1.6 3.2 0.00 0.00 0.00 56 1009.9
20260904182824 33 56 3.2 3.2 0.00 0.00 0.00 56 1010.0
20260904182319 33 47 3.2 4.8 0.00 0.00 0.00 56 1010.0
20260904181815 33 40 1.6 3.2 0.00 0.00 0.00 56 1010.5
20260904181315 33 34 1.6 9.7 0.00 0.00 0.00 56 1010.0
20260904180810 33 28 1.6 3.2 0.00 0.00 0.00 56 1010.1
20260904180305 33 36 0.0 3.2 0.00 0.00 0.00 57 1010.1
20260904175804 32 33 0.0 3.2 0.00 0.00 0.00 57 1010.4
20260904175305 32 32 0.0 3.2 0.00 0.00 0.00 57 1010.1
20260904174758 32 27 1.6 3.2 0.00 0.00 0.00 56 1010.4
20260904174254 32 25 3.2 3.2 0.00 0.00 0.00 57 1010.5
20260904173749 32 27 0.0 3.2 0.00 0.00 0.00 57 1010.5
20260904173244 32 52 1.6 1.6 0.00 0.00 0.00 59 1010.5
20260904172741 32 22 1.6 1.6 0.00 0.00 0.00 60 1010.6
20260904172239 31 29 0.0 1.6 0.00 0.00 0.00 61 1010.5
20260904171734 31 51 3.2 3.2 0.00 0.00 0.00 62 1010.7
20260904171229 31 25 0.0 3.2 0.00 0.00 0.00 62 1010.6
20260904170726 31 35 1.6 3.2 0.00 0.00 0.00 62 1010.9
20260904170221 31 9 1.6 3.2 0.00 0.00 0.00 65 1010.8
20260904165720 31 37 0.0 3.2 0.00 0.00 0.00 65 1010.9
20260904165215 31 41 1.6 3.2 0.00 0.00 0.00 65 1010.8
20260904164709 31 39 1.6 3.2 0.00 0.00 0.00 65 1010.9
20260904164210 31 47 3.2 4.8 0.00 0.00 0.00 65 1011.2
20260904163706 31 56 3.2 3.2 0.00 0.00 0.00 66 1011.3
20260904163201 30 38 0.0 1.6 0.00 0.00 0.00 69 1011.4
20260904162700 30 18 1.6 3.2 0.00 0.00 0.00 70 1011.3
20260904162155 30 25 0.0 3.2 0.00 0.00 0.00 70 1011.5
20260904161651 30 32 0.0 1.6 0.00 0.00 0.00 70 1011.4
20260904161146 30 14 1.6 3.2 0.00 0.00 0.00 69 1011.6
20260904160642 30 5 1.6 1.6 0.00 0.00 0.00 69 1011.5
20260904160137 30 20 1.6 1.6 0.00 0.00 0.00 69 1011.6
20260904155632 30 26 1.6 1.6 0.00 0.00 0.00 69 1011.6
20260904155126 30 22 1.6 1.6 0.00 0.00 0.00 70 1011.9
20260904154625 30 40 0.0 1.6 0.00 0.00 0.00 71 1011.6
20260904154125 29 39 1.6 1.6 0.00 0.00 0.00 70 1011.8
20260904153620 29 42 0.0 1.6 0.00 0.00 0.00 70 1011.9
20260904153115 29 36 1.6 1.6 0.00 0.00 0.00 68 1011.9
20260904152612 28 49 1.6 4.8 0.00 0.00 0.00 69 1011.9
20260904152107 28 38 0.0 3.2 0.00 0.00 0.00 71 1011.9
20260904151602 28 39 1.6 3.2 0.00 0.00 0.00 76 1011.9
20260904151101 28 49 0.0 3.2 0.00 0.00 0.00 77 1012.0
20260904150556 28 56 1.6 3.2 0.00 0.00 0.00 77 1012.0
20260904150050 28 56 3.2 3.2 0.00 0.00 0.00 79 1011.8
20260904145549 28 41 3.2 4.8 0.00 0.00 0.00 80 1011.9
20260904145045 27 38 1.6 3.2 0.00 0.00 0.00 81 1011.9
20260904144541 27 56 3.2 3.2 0.00 0.00 0.00 82 1011.7
20260904144037 27 35 0.0 1.6 0.00 0.00 0.00 83 1011.7
20260904143532 27 17 0.0 1.6 0.00 0.00 0.00 84 1011.7
20260904143029 27 4 1.6 1.6 0.00 0.00 0.00 84 1011.7
20260904142525 27 40 1.6 3.2 0.00 0.00 0.00 85 1011.7
20260904142020 26 29 0.0 1.6 0.00 0.00 0.00 86 1011.7
20260904141515 26 37 1.6 3.2 0.00 0.00 0.00 86 1011.4
20260904141011 26 25 0.0 0.0 0.00 0.00 0.00 86 1011.7
20260904140511 26 16 0.0 1.6 0.00 0.00 0.00 87 1011.7
20260904140011 26 25 0.0 0.0 0.00 0.00 0.00 87 1011.6
20260904135510 26 23 0.0 1.6 0.00 0.00 0.00 88 1011.6
20260904135006 25 34 0.0 1.6 0.00 0.00 0.00 88 1011.8
20260904134501 25 31 0.0 0.0 0.00 0.00 0.00 89 1011.8
20260904133955 25 24 0.0 1.6 0.00 0.00 0.00 89 1011.6
20260904133449 25 26 1.6 1.6 0.00 0.00 0.00 89 1011.7
20260904132945 25 17 1.6 3.2 0.00 0.00 0.00 89 1011.9
20260904132440 25 22 1.6 3.2 0.00 0.00 0.00 89 1011.7
20260904131940 25 14 3.2 3.2 0.00 0.00 0.00 89 1011.8
20260904131435 25 37 0.0 0.0 0.00 0.00 0.00 90 1011.9
20260904130931 25 39 0.0 1.6 0.00 0.00 0.00 90 1011.8
20260904130430 25 13 1.6 1.6 0.00 0.00 0.00 90 1011.9
20260904125925 25 15 1.6 1.6 0.00 0.00 0.00 90 1011.8
20260904125421 25 32 1.6 1.6 0.00 0.00 0.00 90 1011.8
20260904124920 25 2 1.6 3.2 0.00 0.00 0.00 90 1011.9
20260904124417 25 8 1.6 3.2 0.00 0.00 0.00 90 1012.0
20260904123912 25 359 1.6 3.2 0.00 0.00 0.00 90 1012.0
20260904123407 25 4 1.6 3.2 0.00 0.00 0.00 90 1012.0
20260904122903 25 345 3.2 3.2 0.00 0.00 0.00 90 1011.9
20260904122402 25 3 1.6 3.2 0.00 0.00 0.00 90 1011.9
20260904121856 25 333 4.8 4.8 0.00 0.00 0.00 90 1012.0
20260904121353 25 333 3.2 3.2 0.00 0.00 0.00 90 1011.8
20260904120849 25 26 0.0 0.0 0.00 0.00 0.00 90 1012.0
20260904120345 25 6 1.6 1.6 0.00 0.00 0.00 90 1012.1
20260904115839 25 329 0.0 0.0 0.00 0.00 0.00 91 1011.9
20260904115335 24 337 0.0 0.0 0.00 0.00 0.00 91 1011.7
20260904114829 24 337 0.0 0.0 0.00 0.00 0.00 91 1011.8
20260904114324 24 342 0.0 0.0 0.00 0.00 0.00 91 1011.8
20260904113819 24 319 1.6 3.2 0.00 0.00 0.00 91 1011.7
20260904113319 24 344 0.0 0.0 0.00 0.00 0.00 91 1011.9
20260904112813 24 344 0.0 0.0 0.00 0.00 0.00 91 1011.9
20260904112309 24 344 0.0 1.6 0.00 0.00 0.00 91 1011.5
20260904111804 25 343 0.0 0.0 0.00 0.00 0.00 91 1011.6
20260904111300 24 341 0.0 1.6 0.00 0.00 0.00 91 1011.6
20260904110755 25 339 0.0 0.0 0.00 0.00 0.00 91 1011.4
20260904110254 24 346 0.0 1.6 0.00 0.00 0.00 91 1011.5
20260904105750 24 346 0.0 0.0 0.00 0.00 0.00 90 1011.6
20260904105244 24 347 0.0 0.0 0.00 0.00 0.00 90 1011.5
20260904104739 24 347 0.0 0.0 0.00 0.00 0.00 90 1011.3
20260904104235 24 347 0.0 0.0 0.00 0.00 0.00 90 1011.6
20260904103732 24 346 0.0 0.0 0.00 0.00 0.00 90 1011.1
20260904103226 24 346 0.0 0.0 0.00 0.00 0.00 90 1011.4
20260904102722 24 345 0.0 0.0 0.00 0.00 0.00 90 1011.1
20260904102218 24 344 0.0 0.0 0.00 0.00 0.00 90 1010.9
20260904101714 24 344 0.0 0.0 0.00 0.00 0.00 89 1011.0
20260904101209 24 343 0.0 0.0 0.00 0.00 0.00 89 1011.0
20260904100705 24 343 0.0 0.0 0.00 0.00 0.00 89 1011.0
20260904100201 24 343 0.0 0.0 0.00 0.00 0.00 89 1011.2
20260904095700 24 343 0.0 0.0 0.00 0.00 0.00 89 1010.8
20260904095155 24 343 0.0 0.0 0.00 0.00 0.00 89 1010.8
20260904094650 24 343 0.0 0.0 0.00 0.00 0.00 89 1010.8
20260904094145 24 343 0.0 0.0 0.00 0.00 0.00 89 1010.9
20260904093642 24 343 0.0 0.0 0.00 0.00 0.00 88 1010.8
20260904093141 25 343 0.0 0.0 0.00 0.00 0.00 88 1010.8
20260904092638 24 343 0.0 0.0 0.00 0.00 0.00 88 1010.7
20260904092133 25 343 0.0 0.0 0.00 0.00 0.00 88 1010.6
20260904091629 25 343 0.0 0.0 0.00 0.00 0.00 88 1010.6
20260904091129 25 343 0.0 0.0 0.00 0.00 0.00 88 1010.5
20260904090624 25 342 0.0 0.0 0.00 0.00 0.00 88 1010.4
20260904090121 25 342 0.0 0.0 0.00 0.00 0.00 87 1010.4
20260904085620 25 342 0.0 0.0 0.00 0.00 0.00 87 1010.4
20260904085120 25 343 0.0 0.0 0.00 0.00 0.00 87 1010.3
20260904084616 25 343 0.0 0.0 0.00 0.00 0.00 87 1010.3
20260904084112 25 344 0.0 0.0 0.00 0.00 0.00 87 1010.2
20260904083608 25 343 0.0 0.0 0.00 0.00 0.00 87 1010.1
20260904083103 25 343 0.0 0.0 0.00 0.00 0.00 87 1010.2
20260904082558 25 343 0.0 0.0 0.00 0.00 0.00 87 1010.2
20260904082054 25 343 0.0 0.0 0.00 0.00 0.00 87 1009.9
20260904081549 25 343 0.0 0.0 0.00 0.00 0.00 87 1010.0
20260904081044 25 343 0.0 0.0 0.00 0.00 0.00 86 1009.9
20260904080540 25 343 0.0 0.0 0.00 0.00 0.00 86 1010.1
20260904080036 25 343 0.0 0.0 0.00 0.00 0.00 86 1010.0
20260904075532 25 343 0.0 0.0 0.00 0.00 0.00 86 1010.1
20260904075026 25 343 0.0 0.0 0.00 0.00 0.00 86 1010.0
20260904074520 25 343 0.0 0.0 0.00 0.00 0.00 86 1009.9